﻿測定場所 (Monitoring sites),日付 (Measurement date),時間 (Measurement time),線量率 最大値 (max) μGy/h,線量率 最小値 (min) μGy/h,線量率 平均値 (average) μGy/h,
江戸川 (Edogawa),2013-07-21,23:01～24:00,0.0995,0.0863,0.0936,
江戸川 (Edogawa),2013-07-21,22:01～23:00,0.0978,0.0864,0.0926,
江戸川 (Edogawa),2013-07-21,21:01～22:00,0.0977,0.0873,0.0929,
江戸川 (Edogawa),2013-07-21,20:01～21:00,0.0983,0.0877,0.0931,
江戸川 (Edogawa),2013-07-21,19:01～20:00,0.0983,0.0885,0.0934,
江戸川 (Edogawa),2013-07-21,18:01～19:00,0.0980,0.0881,0.0929,
江戸川 (Edogawa),2013-07-21,17:01～18:00,0.101,0.0882,0.0934,
江戸川 (Edogawa),2013-07-21,16:01～17:00,0.0983,0.0865,0.0928,
江戸川 (Edogawa),2013-07-21,15:01～16:00,0.100,0.0883,0.0932,
江戸川 (Edogawa),2013-07-21,14:01～15:00,0.100,0.0882,0.0933,
江戸川 (Edogawa),2013-07-21,13:01～14:00,0.101,0.0865,0.0934,
江戸川 (Edogawa),2013-07-21,12:01～13:00,0.101,0.0865,0.0930,
江戸川 (Edogawa),2013-07-21,11:01～12:00,0.0978,0.0856,0.0926,
江戸川 (Edogawa),2013-07-21,10:01～11:00,0.0988,0.0874,0.0928,
江戸川 (Edogawa),2013-07-21,09:01～10:00,0.0994,0.0868,0.0926,
江戸川 (Edogawa),2013-07-21,08:01～09:00,0.0984,0.0857,0.0926,
江戸川 (Edogawa),2013-07-21,07:01～08:00,0.0970,0.0848,0.0920,
江戸川 (Edogawa),2013-07-21,06:01～07:00,0.0973,0.0841,0.0921,
江戸川 (Edogawa),2013-07-21,05:01～06:00,0.0985,0.0874,0.0925,
江戸川 (Edogawa),2013-07-21,04:01～05:00,0.0975,0.0877,0.0925,
江戸川 (Edogawa),2013-07-21,03:01～04:00,0.0972,0.0870,0.0924,
江戸川 (Edogawa),2013-07-21,02:01～03:00,0.0985,0.0861,0.0921,
江戸川 (Edogawa),2013-07-21,01:01～02:00,0.0986,0.0873,0.0924,
江戸川 (Edogawa),2013-07-21,00:01～01:00,0.0983,0.0863,0.0922,
江戸川 (Edogawa),2013-07-20,23:01～24:00,0.0963,0.0879,0.0924,
江戸川 (Edogawa),2013-07-20,22:01～23:00,0.0993,0.0856,0.0924,
江戸川 (Edogawa),2013-07-20,21:01～22:00,0.0980,0.0880,0.0929,
江戸川 (Edogawa),2013-07-20,20:01～21:00,0.0957,0.0854,0.0916,
江戸川 (Edogawa),2013-07-20,19:01～20:00,0.0980,0.0865,0.0926,
江戸川 (Edogawa),2013-07-20,18:01～19:00,0.0974,0.0889,0.0927,
江戸川 (Edogawa),2013-07-20,17:01～18:00,0.0992,0.0874,0.0922,
江戸川 (Edogawa),2013-07-20,16:01～17:00,0.0997,0.0853,0.0927,
江戸川 (Edogawa),2013-07-20,15:01～16:00,0.0976,0.0860,0.0918,
江戸川 (Edogawa),2013-07-20,14:01～15:00,0.0981,0.0867,0.0929,
江戸川 (Edogawa),2013-07-20,13:01～14:00,0.0980,0.0854,0.0918,
江戸川 (Edogawa),2013-07-20,12:01～13:00,0.0980,0.0875,0.0921,
江戸川 (Edogawa),2013-07-20,11:01～12:00,0.0977,0.0850,0.0918,
江戸川 (Edogawa),2013-07-20,10:01～11:00,0.0975,0.0850,0.0920,
江戸川 (Edogawa),2013-07-20,09:01～10:00,0.0979,0.0870,0.0917,
江戸川 (Edogawa),2013-07-20,08:01～09:00,0.101,0.0866,0.0924,
江戸川 (Edogawa),2013-07-20,07:01～08:00,0.0978,0.0870,0.0921,
江戸川 (Edogawa),2013-07-20,06:01～07:00,0.0996,0.0854,0.0925,
江戸川 (Edogawa),2013-07-20,05:01～06:00,0.0965,0.0849,0.0918,
江戸川 (Edogawa),2013-07-20,04:01～05:00,0.0984,0.0866,0.0918,
江戸川 (Edogawa),2013-07-20,03:01～04:00,0.0975,0.0857,0.0921,
江戸川 (Edogawa),2013-07-20,02:01～03:00,0.0998,0.0866,0.0919,
江戸川 (Edogawa),2013-07-20,01:01～02:00,0.0993,0.0851,0.0917,
江戸川 (Edogawa),2013-07-20,00:01～01:00,0.0976,0.0868,0.0925,
江戸川 (Edogawa),2013-07-19,23:01～24:00,0.0971,0.0873,0.0923,
江戸川 (Edogawa),2013-07-19,22:01～23:00,0.102,0.0858,0.0921,
江戸川 (Edogawa),2013-07-19,21:01～22:00,0.0977,0.0848,0.0916,
江戸川 (Edogawa),2013-07-19,20:01～21:00,0.0978,0.0867,0.0917,
江戸川 (Edogawa),2013-07-19,19:01～20:00,0.0992,0.0846,0.0918,
江戸川 (Edogawa),2013-07-19,18:01～19:00,0.0977,0.0855,0.0918,
江戸川 (Edogawa),2013-07-19,17:01～18:00,0.0978,0.0854,0.0921,
江戸川 (Edogawa),2013-07-19,16:01～17:00,0.0964,0.0853,0.0917,
江戸川 (Edogawa),2013-07-19,15:01～16:00,0.0980,0.0839,0.0921,
江戸川 (Edogawa),2013-07-19,14:01～15:00,0.0973,0.0827,0.0915,
江戸川 (Edogawa),2013-07-19,13:01～14:00,0.0980,0.0860,0.0922,
江戸川 (Edogawa),2013-07-19,12:01～13:00,0.0973,0.0862,0.0920,
江戸川 (Edogawa),2013-07-19,11:01～12:00,0.0980,0.0867,0.0915,
江戸川 (Edogawa),2013-07-19,10:01～11:00,0.0987,0.0827,0.0904,
江戸川 (Edogawa),2013-07-19,09:01～10:00,0.0958,0.0860,0.0915,
江戸川 (Edogawa),2013-07-19,08:01～09:00,0.0966,0.0836,0.0906,
江戸川 (Edogawa),2013-07-19,07:01～08:00,0.0965,0.0855,0.0906,
江戸川 (Edogawa),2013-07-19,06:01～07:00,0.0976,0.0856,0.0911,
江戸川 (Edogawa),2013-07-19,05:01～06:00,0.0986,0.0873,0.0917,
江戸川 (Edogawa),2013-07-19,04:01～05:00,0.0975,0.0845,0.0910,
江戸川 (Edogawa),2013-07-19,03:01～04:00,0.0950,0.0862,0.0908,
江戸川 (Edogawa),2013-07-19,02:01～03:00,0.100,0.0863,0.0912,
江戸川 (Edogawa),2013-07-19,01:01～02:00,0.0965,0.0867,0.0916,
江戸川 (Edogawa),2013-07-19,00:01～01:00,0.0967,0.0848,0.0917,
江戸川 (Edogawa),2013-07-18,23:01～24:00,0.0981,0.0843,0.0912,
江戸川 (Edogawa),2013-07-18,22:01～23:00,0.0980,0.0842,0.0913,
江戸川 (Edogawa),2013-07-18,21:01～22:00,0.0995,0.0858,0.0920,
江戸川 (Edogawa),2013-07-18,20:01～21:00,0.100,0.0845,0.0909,
江戸川 (Edogawa),2013-07-18,19:01～20:00,0.0965,0.0851,0.0909,
江戸川 (Edogawa),2013-07-18,18:01～19:00,0.0984,0.0843,0.0916,
江戸川 (Edogawa),2013-07-18,17:01～18:00,0.0977,0.0859,0.0912,
江戸川 (Edogawa),2013-07-18,16:01～17:00,0.100,0.0840,0.0915,
江戸川 (Edogawa),2013-07-18,15:01～16:00,0.0963,0.0831,0.0906,
江戸川 (Edogawa),2013-07-18,14:01～15:00,0.0963,0.0851,0.0900,
江戸川 (Edogawa),2013-07-18,13:01～14:00,0.0952,0.0847,0.0901,
江戸川 (Edogawa),2013-07-18,12:01～13:00,0.0956,0.0829,0.0886,
江戸川 (Edogawa),2013-07-18,11:01～12:00,0.0942,0.0835,0.0885,
江戸川 (Edogawa),2013-07-18,10:01～11:00,0.0958,0.0818,0.0892,
江戸川 (Edogawa),2013-07-18,09:01～10:00,0.0942,0.0828,0.0891,
江戸川 (Edogawa),2013-07-18,08:01～09:00,0.0937,0.0835,0.0894,
江戸川 (Edogawa),2013-07-18,07:01～08:00,0.0964,0.0834,0.0894,
江戸川 (Edogawa),2013-07-18,06:01～07:00,0.0944,0.0844,0.0893,
江戸川 (Edogawa),2013-07-18,05:01～06:00,0.0980,0.0861,0.0924,
江戸川 (Edogawa),2013-07-18,04:01～05:00,0.100,0.0868,0.0919,
江戸川 (Edogawa),2013-07-18,03:01～04:00,0.0960,0.0828,0.0900,
江戸川 (Edogawa),2013-07-18,02:01～03:00,0.0960,0.0831,0.0897,
江戸川 (Edogawa),2013-07-18,01:01～02:00,0.0950,0.0848,0.0897,
江戸川 (Edogawa),2013-07-18,00:01～01:00,0.0944,0.0836,0.0894,
江戸川 (Edogawa),2013-07-17,23:01～24:00,0.0963,0.0826,0.0903,
江戸川 (Edogawa),2013-07-17,22:01～23:00,0.101,0.0866,0.0946,
江戸川 (Edogawa),2013-07-17,21:01～22:00,0.111,0.0938,0.103,
江戸川 (Edogawa),2013-07-17,20:01～21:00,0.114,0.0977,0.104,
江戸川 (Edogawa),2013-07-17,19:01～20:00,0.110,0.0947,0.104,
江戸川 (Edogawa),2013-07-17,18:01～19:00,0.106,0.0952,0.0999,
江戸川 (Edogawa),2013-07-17,17:01～18:00,0.102,0.0888,0.0967,
江戸川 (Edogawa),2013-07-17,16:01～17:00,0.0987,0.0873,0.0927,
江戸川 (Edogawa),2013-07-17,15:01～16:00,0.100,0.0876,0.0929,
江戸川 (Edogawa),2013-07-17,14:01～15:00,0.0987,0.0884,0.0934,
江戸川 (Edogawa),2013-07-17,13:01～14:00,0.0981,0.0864,0.0924,
江戸川 (Edogawa),2013-07-17,12:01～13:00,0.0993,0.0889,0.0934,
江戸川 (Edogawa),2013-07-17,11:01～12:00,0.0978,0.0874,0.0924,
江戸川 (Edogawa),2013-07-17,10:01～11:00,0.0984,0.0855,0.0924,
江戸川 (Edogawa),2013-07-17,09:01～10:00,0.101,0.0841,0.0927,
江戸川 (Edogawa),2013-07-17,08:01～09:00,0.0979,0.0873,0.0925,
江戸川 (Edogawa),2013-07-17,07:01～08:00,0.101,0.0871,0.0931,
江戸川 (Edogawa),2013-07-17,06:01～07:00,0.0996,0.0858,0.0927,
江戸川 (Edogawa),2013-07-17,05:01～06:00,0.100,0.0883,0.0931,
江戸川 (Edogawa),2013-07-17,04:01～05:00,0.100,0.0865,0.0931,
江戸川 (Edogawa),2013-07-17,03:01～04:00,0.101,0.0875,0.0930,
江戸川 (Edogawa),2013-07-17,02:01～03:00,0.0984,0.0874,0.0926,
江戸川 (Edogawa),2013-07-17,01:01～02:00,0.0995,0.0879,0.0934,
江戸川 (Edogawa),2013-07-17,00:01～01:00,0.0994,0.0845,0.0923,
江戸川 (Edogawa),2013-07-16,23:01～24:00,0.0985,0.0872,0.0933,
江戸川 (Edogawa),2013-07-16,22:01～23:00,0.0972,0.0868,0.0925,
江戸川 (Edogawa),2013-07-16,21:01～22:00,0.0977,0.0855,0.0918,
江戸川 (Edogawa),2013-07-16,20:01～21:00,0.100,0.0867,0.0924,
江戸川 (Edogawa),2013-07-16,19:01～20:00,0.0996,0.0870,0.0927,
江戸川 (Edogawa),2013-07-16,18:01～19:00,0.0986,0.0863,0.0921,
江戸川 (Edogawa),2013-07-16,17:01～18:00,0.101,0.0880,0.0927,
江戸川 (Edogawa),2013-07-16,16:01～17:00,0.0976,0.0837,0.0925,
江戸川 (Edogawa),2013-07-16,15:01～16:00,0.0994,0.0862,0.0921,
江戸川 (Edogawa),2013-07-16,14:01～15:00,0.0981,0.0857,0.0919,
江戸川 (Edogawa),2013-07-16,13:01～14:00,0.0991,0.0867,0.0929,
江戸川 (Edogawa),2013-07-16,12:01～13:00,0.0982,0.0871,0.0924,
江戸川 (Edogawa),2013-07-16,11:01～12:00,0.0989,0.0869,0.0922,
江戸川 (Edogawa),2013-07-16,10:01～11:00,0.0971,0.0873,0.0926,
江戸川 (Edogawa),2013-07-16,09:01～10:00,0.0976,0.0859,0.0916,
江戸川 (Edogawa),2013-07-16,08:01～09:00,0.0985,0.0866,0.0927,
江戸川 (Edogawa),2013-07-16,07:01～08:00,0.0974,0.0858,0.0918,
江戸川 (Edogawa),2013-07-16,06:01～07:00,0.101,0.0867,0.0927,
江戸川 (Edogawa),2013-07-16,05:01～06:00,0.0994,0.0866,0.0921,
江戸川 (Edogawa),2013-07-16,04:01～05:00,0.0986,0.0850,0.0918,
江戸川 (Edogawa),2013-07-16,03:01～04:00,0.0982,0.0867,0.0918,
江戸川 (Edogawa),2013-07-16,02:01～03:00,0.0966,0.0848,0.0923,
江戸川 (Edogawa),2013-07-16,01:01～02:00,0.0994,0.0878,0.0922,
江戸川 (Edogawa),2013-07-16,00:01～01:00,0.0968,0.0871,0.0921,
江戸川 (Edogawa),2013-07-15,23:01～24:00,0.0992,0.0854,0.0918,
江戸川 (Edogawa),2013-07-15,22:01～23:00,0.0976,0.0868,0.0919,
江戸川 (Edogawa),2013-07-15,21:01～22:00,0.0999,0.0887,0.0923,
江戸川 (Edogawa),2013-07-15,20:01～21:00,0.0997,0.0857,0.0924,
江戸川 (Edogawa),2013-07-15,19:01～20:00,0.0973,0.0869,0.0927,
江戸川 (Edogawa),2013-07-15,18:01～19:00,0.101,0.0859,0.0925,
江戸川 (Edogawa),2013-07-15,17:01～18:00,0.0983,0.0874,0.0923,
江戸川 (Edogawa),2013-07-15,16:01～17:00,0.0972,0.0856,0.0917,
江戸川 (Edogawa),2013-07-15,15:01～16:00,0.0981,0.0856,0.0915,
江戸川 (Edogawa),2013-07-15,14:01～15:00,0.0994,0.0874,0.0920,
江戸川 (Edogawa),2013-07-15,13:01～14:00,0.0993,0.0866,0.0920,
江戸川 (Edogawa),2013-07-15,12:01～13:00,0.0972,0.0852,0.0915,
江戸川 (Edogawa),2013-07-15,11:01～12:00,0.0970,0.0859,0.0909,
江戸川 (Edogawa),2013-07-15,10:01～11:00,0.0968,0.0845,0.0905,
江戸川 (Edogawa),2013-07-15,09:01～10:00,0.0980,0.0853,0.0907,
江戸川 (Edogawa),2013-07-15,08:01～09:00,0.0986,0.0848,0.0912,
江戸川 (Edogawa),2013-07-15,07:01～08:00,0.0973,0.0841,0.0911,
江戸川 (Edogawa),2013-07-15,06:01～07:00,0.0971,0.0865,0.0919,
江戸川 (Edogawa),2013-07-15,05:01～06:00,0.0979,0.0863,0.0916,
江戸川 (Edogawa),2013-07-15,04:01～05:00,0.0964,0.0848,0.0904,
江戸川 (Edogawa),2013-07-15,03:01～04:00,0.0960,0.0820,0.0905,
江戸川 (Edogawa),2013-07-15,02:01～03:00,0.0962,0.0856,0.0910,
江戸川 (Edogawa),2013-07-15,01:01～02:00,0.0979,0.0840,0.0904,
江戸川 (Edogawa),2013-07-15,00:01～01:00,0.0949,0.0856,0.0903,
